contact:dominique.lefevre@mio.osupytheas.fr, maurice.libes@osupytheas.fr
Project:EMSO Ligure-ouest http://www.emso-fr.org/EMSO-France
Sensor Aquadopp, line 13 Serial AQD14315 
DOI : "https://doi.org/10.17882/74513; https://doi.org/10.17882/83244" 
Title:EMSO Ligure Ouest : Data ligne ALBATROSS capteur AQUADOPP - deploiement 2021
Id,Date,Profondeur,Latitude,Longitude,X_East,Y_North,Z_Up,Amplitude_X,Amplitude_Y,Amplitude_Z,Batterie,SoundSpeed,Heading,Pitch,Roll,Pressure,Temperature,Speed,Direction
, , m, degrees North, degrees East, m.s-1, m.s-1,m.s-1, 1, 1, 1, Volt, m.s-1, degree, degree, degree, dbar, degree_C, m.s-1, degree
13,2022-08-31T23:30:00,2400.0,42.79,6.0312,0.016,-0.001,-0.007,62.0,55.0,55.0,12.9,1504.9,13.3,0.0,-0.4,2393.084,13.34,0.016,93.6
13,2022-09-01T00:00:00,2400.0,42.79,6.0312,-0.004,-0.014,-0.009,64.0,57.0,61.0,12.9,1504.9,13.6,0.0,-0.4,2393.094,13.34,0.014,195.9
13,2022-09-01T00:30:00,2400.0,42.79,6.0312,-0.001,-0.013,-0.059,63.0,59.0,58.0,12.9,1504.9,12.7,0.1,-0.4,2393.043,13.34,0.013,184.4
13,2022-09-01T01:00:00,2400.0,42.79,6.0312,-0.004,0.0,-0.008,62.0,56.0,57.0,12.9,1504.9,9.2,0.0,-0.5,2393.041,13.34,0.004,270.0
13,2022-09-01T01:30:00,2400.0,42.79,6.0312,0.014,-0.003,-0.029,63.0,55.0,59.0,12.9,1504.9,9.1,0.0,-0.3,2392.982,13.34,0.014,102.1
13,2022-09-01T02:00:00,2400.0,42.79,6.0312,0.015,0.004,-0.007,65.0,59.0,60.0,12.9,1504.9,9.0,0.1,-0.4,2392.994,13.34,0.015,75.1
13,2022-09-01T02:30:00,2400.0,42.79,6.0312,-0.01,0.004,-0.024,63.0,62.0,59.0,12.9,1504.9,8.3,0.0,-0.4,2392.999,13.34,0.01,291.8
13,2022-09-01T03:00:00,2400.0,42.79,6.0312,0.002,-0.001,-0.025,59.0,56.0,58.0,12.9,1504.9,6.7,0.0,-0.4,2392.964,13.34,0.002,116.6
13,2022-09-01T03:30:00,2400.0,42.79,6.0312,-0.01,-0.002,0.018,64.0,58.0,58.0,12.9,1504.9,5.9,0.0,-0.4,2392.962,13.34,0.01,258.7
13,2022-09-01T04:00:00,2400.0,42.79,6.0312,-0.003,0.003,0.0,60.0,54.0,54.0,12.9,1504.9,7.8,0.0,-0.4,2392.981,13.34,0.004,315.0
13,2022-09-01T04:30:00,2400.0,42.79,6.0312,0.007,0.01,-0.023,59.0,54.0,57.0,12.9,1504.9,9.3,0.0,-0.3,2392.961,13.34,0.012,35.0
13,2022-09-01T05:00:00,2400.0,42.79,6.0312,-0.012,-0.016,0.004,62.0,55.0,55.0,12.9,1504.9,11.4,0.0,-0.4,2392.938,13.34,0.02,216.9
13,2022-09-01T05:30:00,2400.0,42.79,6.0312,-0.008,-0.001,0.018,61.0,55.0,57.0,12.9,1504.9,12.5,0.0,-0.3,2392.952,13.34,0.008,262.9
13,2022-09-01T06:00:00,2400.0,42.79,6.0312,-0.012,0.009,0.008,66.0,52.0,52.0,12.9,1504.9,15.6,0.1,-0.4,2392.947,13.34,0.015,306.9
13,2022-09-01T06:30:00,2400.0,42.79,6.0312,0.001,0.014,0.008,66.0,60.0,60.0,12.9,1504.9,16.7,0.1,-0.3,2392.965,13.34,0.014,4.1
13,2022-09-01T07:00:00,2400.0,42.79,6.0312,0.02,0.017,0.034,63.0,55.0,59.0,12.9,1504.9,17.5,0.0,-0.5,2392.979,13.34,0.026,49.6
13,2022-09-01T07:30:00,2400.0,42.79,6.0312,0.005,-0.026,-0.007,61.0,58.0,59.0,12.9,1504.9,16.6,0.0,-0.4,2393.042,13.34,0.026,169.1
13,2022-09-01T08:00:00,2400.0,42.79,6.0312,0.011,0.01,-0.022,61.0,56.0,56.0,12.9,1504.9,20.0,0.0,-0.3,2393.046,13.34,0.014,47.7
13,2022-09-01T08:30:00,2400.0,42.79,6.0312,0.011,0.021,-0.019,71.0,56.0,56.0,12.9,1504.9,22.1,0.0,-0.4,2393.036,13.34,0.023,27.6
13,2022-09-01T09:00:00,2400.0,42.79,6.0312,0.029,0.011,0.005,62.0,57.0,61.0,12.9,1504.9,20.9,0.1,-0.4,2393.108,13.34,0.031,69.2
13,2022-09-01T09:30:00,2400.0,42.79,6.0312,0.013,0.013,0.0,61.0,55.0,60.0,12.9,1504.9,19.7,-0.1,-0.4,2393.094,13.34,0.018,45.0
13,2022-09-01T10:00:00,2400.0,42.79,6.0312,0.004,0.0,-0.03,60.0,56.0,58.0,12.9,1504.9,16.4,0.0,-0.4,2393.125,13.34,0.004,90.0
13,2022-09-01T10:30:00,2400.0,42.79,6.0312,-0.006,0.002,-0.001,64.0,55.0,57.0,12.9,1504.9,20.5,0.0,-0.4,2393.096,13.34,0.006,288.4
13,2022-09-01T11:00:00,2400.0,42.79,6.0312,0.002,0.002,0.024,64.0,56.0,59.0,12.9,1504.9,13.4,0.1,-0.4,2393.108,13.34,0.002,45.0
13,2022-09-01T11:30:00,2400.0,42.79,6.0312,0.027,0.02,0.0,64.0,55.0,59.0,12.9,1504.9,358.7,0.0,-0.4,2393.081,13.34,0.033,53.5
13,2022-09-01T12:00:00,2400.0,42.79,6.0312,0.03,-0.032,-0.014,61.0,55.0,56.0,12.9,1504.9,359.5,0.0,-0.4,2393.06,13.34,0.043,136.9
13,2022-09-01T12:30:00,2400.0,42.79,6.0312,0.029,0.004,-0.018,62.0,54.0,60.0,12.9,1504.9,1.0,0.0,-0.5,2393.04,13.34,0.029,82.2
13,2022-09-01T13:00:00,2400.0,42.79,6.0312,0.005,-0.009,-0.009,60.0,54.0,58.0,12.9,1504.9,1.0,0.0,-0.5,2393.014,13.34,0.01,150.9
13,2022-09-01T13:30:00,2400.0,42.79,6.0312,0.004,-0.006,-0.012,66.0,55.0,59.0,12.9,1504.9,5.7,0.0,-0.4,2392.973,13.34,0.007,146.3
13,2022-09-01T14:00:00,2400.0,42.79,6.0312,0.004,0.003,-0.008,62.0,54.0,60.0,12.9,1504.9,4.0,0.0,-0.5,2393.011,13.34,0.005,53.1
13,2022-09-01T14:30:00,2400.0,42.79,6.0312,0.016,-0.013,0.006,61.0,61.0,56.0,12.9,1504.9,0.8,0.0,-0.4,2393.025,13.34,0.02,129.1
13,2022-09-01T15:00:00,2400.0,42.79,6.0312,0.013,-0.007,-0.006,58.0,55.0,55.0,12.9,1504.9,3.6,0.0,-0.4,2392.967,13.34,0.014,118.3
13,2022-09-01T15:30:00,2400.0,42.79,6.0312,0.0,-0.013,-0.048,60.0,54.0,56.0,12.9,1504.9,0.0,0.0,-0.6,2392.995,13.34,0.013,180.0
13,2022-09-01T16:00:00,2400.0,42.79,6.0312,-0.016,-0.019,0.019,60.0,51.0,54.0,12.9,1504.9,1.0,0.1,-0.5,2392.92,13.34,0.024,220.1
13,2022-09-01T16:30:00,2400.0,42.79,6.0312,0.006,-0.017,0.0,65.0,56.0,58.0,12.9,1504.9,358.9,0.0,-0.5,2392.953,13.34,0.018,160.6
13,2022-09-01T17:00:00,2400.0,42.79,6.0312,0.02,-0.009,0.0,64.0,56.0,59.0,12.9,1504.9,359.8,0.1,-0.4,2392.979,13.34,0.021,114.2
13,2022-09-01T17:30:00,2400.0,42.79,6.0312,-0.005,-0.007,0.012,63.0,58.0,54.0,12.9,1504.9,0.2,0.1,-0.4,2392.928,13.34,0.008,215.5
13,2022-09-01T18:00:00,2400.0,42.79,6.0312,0.002,-0.004,-0.008,62.0,55.0,57.0,12.9,1504.9,358.1,0.0,-0.4,2392.96,13.34,0.004,153.4
13,2022-09-01T18:30:00,2400.0,42.79,6.0312,0.015,-0.017,0.011,68.0,53.0,55.0,12.9,1504.9,356.0,0.0,-0.3,2393.02,13.34,0.022,138.6
13,2022-09-01T19:00:00,2400.0,42.79,6.0312,-0.002,0.009,-0.019,70.0,55.0,62.0,12.9,1504.9,356.6,0.1,-0.5,2393.019,13.34,0.009,347.5
13,2022-09-01T19:30:00,2400.0,42.79,6.0312,0.022,0.019,-0.037,67.0,56.0,60.0,12.9,1504.9,356.4,0.1,-0.5,2393.008,13.34,0.029,49.2
13,2022-09-01T20:00:00,2400.0,42.79,6.0312,-0.006,0.005,-0.008,65.0,55.0,55.0,12.9,1504.9,359.5,0.0,-0.4,2393.053,13.34,0.007,309.8
13,2022-09-01T20:30:00,2400.0,42.79,6.0312,-0.013,-0.007,-0.03,62.0,54.0,54.0,12.9,1504.9,0.1,0.1,-0.4,2393.064,13.34,0.014,241.7
13,2022-09-01T21:00:00,2400.0,42.79,6.0312,0.003,-0.01,0.005,64.0,54.0,54.0,12.9,1504.9,2.3,0.0,-0.4,2393.091,13.34,0.01,163.3
13,2022-09-01T21:30:00,2400.0,42.79,6.0312,-0.006,-0.004,-0.035,62.0,57.0,59.0,12.9,1504.9,0.8,0.0,-0.4,2393.123,13.34,0.007,236.3
13,2022-09-01T22:00:00,2400.0,42.79,6.0312,0.003,-0.001,-0.021,61.0,53.0,58.0,12.9,1504.9,356.0,0.0,-0.3,2393.134,13.34,0.003,108.4
13,2022-09-01T22:30:00,2400.0,42.79,6.0312,-0.01,-0.001,-0.001,58.0,57.0,55.0,12.9,1504.9,355.9,0.0,-0.5,2393.092,13.34,0.01,264.3
13,2022-09-01T23:00:00,2400.0,42.79,6.0312,0.009,-0.013,-0.014,66.0,56.0,53.0,12.9,1504.9,356.2,0.1,-0.4,2393.088,13.34,0.015,145.3
